Watertown, NY

4:13 AM EDT on May 24, 2017 (GMT -0400)
Watertown International

Weather History for KART - February, 2013

Change the Weather History Date:

Wednesday, February 27, 2013

  Actual Average Record
Temperature  
Mean Temperature 35 °F 24 °F  
Max Temperature 37 °F 35 °F 63 °F (2000)
Min Temperature 33 °F 14 °F -25 °F (2006)
Degree Days  
Heating Degree Days 30 41  
Month to date heating degree days 1175 1190  
Since 1 July heating degree days 4820 5401  
Cooling Degree Days 0 0  
Month to date cooling degree days 0 0  
Year to date cooling degree days 0 0  
Moisture  
Dew Point 32 °F    
Average Humidity 80    
Maximum Humidity 96    
Minimum Humidity 64    
Precipitation  
Precipitation 1.01 in 0.09 in 1.01 in (2013)
Month to date precipitation 1.99 2.14  
Year to date precipitation 4.19 4.80  
Sea Level Pressure  
Sea Level Pressure 29.66 in    
Wind  
Wind Speed 12 mph (NE)    
Max Wind Speed 24 mph    
Max Gust Speed 32 mph    
Visibility 5 miles    
Events Rain , Snow    
T = Trace of Precipitation, MM = Missing Value Source: NWS Daily Summary

Daily Weather History Graph

Daily Weather History Graph

Search for Another Location

Airport or City:

Trip Planner

Search our weather history database for the weather conditions in past years. The results will help you decide how hot, cold, wet, or windy it might be!

Date:

Astronomy

Feb. 27, 2013 Rise Set
Actual Time 6:43 AM EST 5:50 PM EST
Civil Twilight 6:14 AM EST 6:19 PM EST
Nautical Twilight 5:41 AM EST 6:52 PM EST
Astronomical Twilight 5:08 AM EST 7:26 PM EST
Moon 8:16 PM EST (2/27) 7:12 AM EST (2/27)
Length of Visible Light 12h 04m
Length of Day
11h 06m
Waning Gibbous, 96% of the Moon is Illuminated
Feb 27
Waning Gibbous
Mar 4
Last Quarter
Mar 11
New
Mar 19
First Quarter
Mar 27
Full

Hourly Weather History & Observations

Time (EST) Temp. Windchill Dew Point Humidity Pressure Visibility Wind Dir Wind Speed Gust Speed Precip Events Conditions
12:56 AM 37.0 °F 31.0 °F 27.0 °F 67% 29.95 in 10.0 mi ENE 8.1 mph - N/A   Overcast
1:52 AM 35.6 °F 29.2 °F 28.4 °F 75% 29.93 in 2.0 mi ENE 8.1 mph - 0.05 in Snow Light Snow
1:56 AM 35.1 °F 29.3 °F 28.9 °F 78% 29.94 in 2.5 mi NE 6.9 mph - 0.06 in Snow Light Snow
2:04 AM 33.8 °F 25.8 °F 30.2 °F 87% 29.91 in 4.0 mi NE 10.4 mph - 0.02 in Rain Rain
2:56 AM 35.1 °F 25.2 °F 30.9 °F 85% 29.88 in 6.0 mi NE 16.1 mph - 0.17 in Rain Rain
3:56 AM 35.1 °F 24.5 °F 30.9 °F 85% 29.82 in 6.0 mi ENE 18.4 mph - 0.10 in Rain Rain
4:56 AM 35.1 °F 24.1 °F 30.9 °F 85% 29.78 in 7.0 mi NE 19.6 mph - 0.14 in Rain Light Rain
5:56 AM 34.0 °F 23.0 °F 30.9 °F 89% 29.73 in 6.0 mi ENE 18.4 mph - 0.10 in Rain Light Rain
6:24 AM 33.8 °F 24.3 °F 32.0 °F 93% 29.72 in 6.0 mi ENE 13.8 mph - 0.02 in Rain Light Rain
6:31 AM 33.8 °F 24.3 °F 32.0 °F 93% 29.72 in 8.0 mi NE 13.8 mph - 0.02 in Rain Light Rain
6:38 AM 33.8 °F 24.8 °F 32.0 °F 93% 29.72 in 10.0 mi ENE 12.7 mph - 0.02 in Rain Light Rain
6:56 AM 34.0 °F 26.6 °F 32.0 °F 92% 29.74 in 10.0 mi NE 9.2 mph - 0.03 in Rain Light Rain
7:39 AM 35.6 °F 26.6 °F 32.0 °F 87% 29.71 in 10.0 mi NE 13.8 mph - 0.01 in Rain Light Rain
7:56 AM 35.1 °F 26.9 °F 32.0 °F 89% 29.71 in 10.0 mi NE 11.5 mph - 0.01 in Rain Light Rain
8:56 AM 35.1 °F 26.9 °F 33.1 °F 92% 29.71 in 10.0 mi NNE 11.5 mph - 0.01 in Rain Light Rain
9:56 AM 36.0 °F 28.0 °F 33.1 °F 89% 29.68 in 10.0 mi NNE 11.5 mph - 0.00 in Rain Light Rain
10:22 AM 35.6 °F 28.0 °F 33.8 °F 93% 29.67 in 10.0 mi NNE 10.4 mph - 0.00 in   Overcast
10:56 AM 36.0 °F 28.5 °F 34.0 °F 93% 29.68 in 7.0 mi NNE 10.4 mph - 0.01 in Rain Light Rain
11:50 AM 35.6 °F 27.5 °F 33.8 °F 93% 29.65 in 10.0 mi NE 11.5 mph - 0.01 in   Overcast
11:51 AM 36.0 °F 28.5 °F 34.0 °F 93% 29.66 in 10.0 mi NE 10.4 mph - 0.01 in   Overcast
12:08 PM 35.6 °F 26.6 °F 33.8 °F 93% 29.64 in 6.0 mi NE 13.8 mph - 0.00 in Rain Light Rain
12:33 PM 35.6 °F 27.1 °F 33.8 °F 93% 29.64 in 3.0 mi NNE 12.7 mph - 0.04 in Rain Rain
12:49 PM 35.6 °F 26.6 °F 33.8 °F 93% 29.63 in 2.5 mi NNE 13.8 mph - 0.07 in Rain Rain
12:56 PM 36.0 °F 27.5 °F 34.0 °F 93% 29.64 in 2.5 mi NNE 12.7 mph - 0.08 in Rain Rain
1:04 PM 35.6 °F 27.1 °F 33.8 °F 93% 29.63 in 4.0 mi NNE 12.7 mph - 0.01 in Rain Light Rain
1:18 PM 35.6 °F 28.0 °F 33.8 °F 93% 29.62 in 5.0 mi NNE 10.4 mph - 0.01 in Rain Light Rain
1:38 PM 35.6 °F 28.0 °F 33.8 °F 93% 29.62 in 4.0 mi North 10.4 mph - 0.03 in Rain Light Rain
1:56 PM 35.1 °F 27.4 °F 34.0 °F 96% 29.64 in 5.0 mi North 10.4 mph - 0.04 in Rain Light Rain
2:23 PM 35.6 °F 27.5 °F 33.8 °F 93% 29.62 in 4.0 mi North 11.5 mph - 0.03 in Rain Light Rain
2:51 PM 35.6 °F 28.0 °F 33.8 °F 93% 29.62 in 4.0 mi North 10.4 mph - 0.06 in Rain Rain
2:56 PM 35.1 °F 26.4 °F 33.1 °F 92% 29.63 in 5.0 mi North 12.7 mph - 0.07 in Rain Rain
3:22 PM 35.6 °F 26.6 °F 33.8 °F 93% 29.62 in 5.0 mi NNE 13.8 mph - 0.03 in Rain Rain
3:56 PM 34.0 °F 25.0 °F 33.1 °F 96% 29.63 in 8.0 mi NNE 12.7 mph - 0.06 in Snow Light Snow
4:08 PM 33.8 °F 25.3 °F 33.8 °F 100% 29.61 in 6.0 mi NNE 11.5 mph - 0.01 in Snow Light Snow
4:56 PM 34.0 °F 23.4 °F 32.0 °F 92% 29.61 in 4.0 mi NE 17.3 mph - 0.02 in Snow Light Snow
5:06 PM 33.8 °F 24.8 °F 32.0 °F 93% 29.60 in 2.0 mi NE 12.7 mph - 0.00 in Snow Light Snow
5:15 PM 33.8 °F 24.8 °F 32.0 °F 93% 29.60 in 1.8 mi NE 12.7 mph - 0.00 in Snow Light Snow
5:41 PM 33.8 °F 24.3 °F 32.0 °F 93% 29.59 in 3.0 mi ENE 13.8 mph - 0.01 in Snow Light Snow
5:56 PM 34.0 °F 25.5 °F 32.0 °F 92% 29.60 in 4.0 mi ENE 11.5 mph - 0.01 in Snow Light Snow
6:56 PM 34.0 °F 26.0 °F 32.0 °F 92% 29.59 in 9.0 mi ENE 10.4 mph - 0.01 in Snow Light Snow
7:56 PM 34.0 °F 26.0 °F 32.0 °F 92% 29.59 in 10.0 mi ENE 10.4 mph - 0.00 in   Overcast
8:34 PM 33.8 °F 25.8 °F 32.0 °F 93% 29.57 in 2.5 mi ENE 10.4 mph - 0.00 in Snow Light Snow
8:54 PM 33.8 °F 26.4 °F 32.0 °F 93% 29.56 in 3.0 mi ENE 9.2 mph - 0.00 in Snow Light Snow
8:56 PM 33.8 °F 27.0 °F 32.0 °F 93% 29.56 in 3.0 mi ENE 8.1 mph - N/A Snow Light Snow
8:59 PM 33.8 °F 26.4 °F 32.0 °F 93% 29.56 in 2.5 mi ENE 9.2 mph - 0.00 in Snow Light Snow
9:07 PM 33.8 °F 26.4 °F 32.0 °F 93% 29.56 in 3.0 mi ENE 9.2 mph - 0.00 in Snow Light Snow
9:16 PM 33.8 °F 25.8 °F 32.0 °F 93% 29.56 in 2.5 mi ENE 10.4 mph - 0.00 in Snow Light Snow
9:26 PM 33.8 °F 25.8 °F 32.0 °F 93% 29.56 in 4.0 mi ENE 10.4 mph - 0.01 in Snow Light Snow
9:56 PM 34.0 °F 25.5 °F 32.0 °F 92% 29.56 in 9.0 mi NE 11.5 mph - 0.01 in Snow Light Snow
10:16 PM 33.8 °F 26.4 °F 32.0 °F 93% 29.55 in 4.0 mi ENE 9.2 mph - 0.00 in Snow Light Snow
10:21 PM 33.8 °F 27.7 °F 32.0 °F 93% 29.54 in 2.5 mi ENE 6.9 mph - 0.00 in Snow Light Snow
10:56 PM 34.0 °F 28.0 °F 32.0 °F 92% 29.56 in 1.8 mi NE 6.9 mph - 0.02 in Snow Light Snow
11:32 PM 33.8 °F 29.6 °F 32.0 °F 93% 29.54 in 1.2 mi East 4.6 mph - 0.03 in Snow Light Snow
11:46 PM 33.8 °F 30.8 °F 33.8 °F 100% 29.54 in 3.0 mi East 3.5 mph - 0.04 in Snow Light Snow
11:56 PM 33.1 °F - 32.0 °F 96% 29.55 in 5.0 mi Calm Calm - 0.05 in Snow Light Snow